Regional Weather Roundup
Issued by NWS Goodland, KS

Home | Current Version | Previous Version | Graphics & Text | Print | Product List | Glossary On
Versions: 1 2 3 4 5 6 7 8 9 10 11 12 13 14 15 16 17 18 19 20 21 22 23 24 25 26 27 28 29 30 31 32 33 34 35 36 37 38 39 40 41 42 43 44 45 46 47 48 49 50
000
ASUS43 KGLD 052059
RWRGLD

GOODLAND FORECAST AREA HOURLY WEATHER ROUNDUP
NATIONAL WEATHER SERVICE GOODLAND KS
200 PM MST MON DEC 05 2016

...OFFICIAL OBSERVATIONS...

CITY           SKY/WX    TMP DP  RH WIND       PRES   REMARKS
GOODLAND KS    MOSUNNY   59  21  23 NE14      29.57R
HILL CITY KS   SUNNY     51  29  42 SE7       29.59R
IMPERIAL NEB   MOSUNNY   50   9  19 NW33G41   29.63R
MCCOOK NEB     CLOUDY    48  24  39 NW6       29.62R
AKRON CO       SUNNY     44   9  23 N29G36    29.65R
BURLINGTON CO  MOSUNNY   59  17  19 NE15      29.59R
LIMON CO       SUNNY     55  16  21 NW18      29.60S
$$

...UNOFFICIAL OBSERVATIONS...

CITY           SKY/WX    TMP DP  RH WIND       PRES   REMARKS
COLBY KS       MOSUNNY   57  28  33 E12       29.58R
LENORA KS        N/A     51  32  48 MISG        N/A
NORTON KS      SUNNY     54  25  32 SE9       29.58R
SHARON SPRINGS   N/A     62  22  21 NE18        N/A
TRENTON NEB      N/A     51  32  48 NW14        N/A
KIT CARSON CO    N/A     61  23  23 MISG        N/A
YUMA CO        PTSUNNY   45  14  29 NW20G26   29.63R
$$




USA.gov is the U.S. government's official web portal to all federal, state and local government web resources and services.